小惑星2010 EJ104

2010 EJ104

English version
Home page
Updated on July 3, 2010

---------------------------------------------------------------------

・ プロフィール

発見日 2010年3月10日
発見光度
発見者 Purple Mountain Observatory, XuYi Station

・ 軌道要素

Epoch 2010 July 23.0 TT = JDT 2455400.5                 MPC
M   1.26783              (2000.0)            P               Q
n   0.00982751     Peri.  177.04117     -0.98659650     -0.14193972
a  21.5860837      Node   353.02911     +0.13276176     -0.41137662
e   0.9011432      Incl.   41.55197     +0.09487705     -0.90034571
P 100.29           H   17.1           G   0.15           U   3

・ 光度変化

        H = 17.1  G = 0.15

---------------------------------------------------------------------

軌道要素はM.P.E.C. 2010-L40に掲載されたものです。
光度グラフはComet for Windowsで作成したものです。

---------------------------------------------------------------------

Copyright(C) Seiichi Yoshida (comet@aerith.net). All rights reserved.